Regional Weather Roundup
Issued by NWS Midland/Odessa, TX

Skip options and go directly to product.
Home | Oldest Version | Next Version | Current Version | All | Text Only | Save Text | Print | Product List | Glossary On

Skip product version selection by date and time.   
896
ASUS44 KMAF 300001
RWRMAF
MIDLAND AREA WEATHER ROUNDUP
NATIONAL WEATHER SERVICE MIDLAND TX
700 PM CDT MON AUG 29 2016

...IN SOUTHWEST TEXAS AND SOUTHEAST NEW MEXICO...

CITY           SKY/WX    TMP DP  RH WIND       PRES   REMARKS
ALPINE         CLOUDY    69  63  82 E20       30.22R
ANDREWS        DRIZZLE   71  69  93 N6        30.14F
ARTESIA        MOSUNNY   79  64  61 NE18G24   30.14S
BIG SPRING     CLOUDY    84  62  47 E6        30.10R
CARLSBAD       CLOUDY    76  64  66 E18       30.12R
DRYDEN           N/A     72  70  93 N13       30.02R
FORT STOCKTON  CLOUDY    70  67  90 NW5       30.11F
GUAD PASS      CLOUDY    72  54  53 NE24      30.23R
HOBBS          PTSUNNY   70  70 100 NE8       30.18S
MARFA          CLOUDY   N/A N/A N/A NE16      30.18S
MIDLAND AIRPK  LGT RAIN  72  67  87 NW9       30.12S
MIDLAND INTL   LGT RAIN  71  67  87 NW9       30.11S
ODESSA         LGT RAIN  70  67  90 N6        30.13S FOG
PECOS          DRIZZLE   73  68  82 E17       30.09R
PRESIDIO       LGT RAIN  78  67  67 E10       30.03S
SEMINOLE       CLOUDY    68  67  94 N6        30.16F
SNYDER           N/A     86  60  40 E13       30.07F
WINK           CLOUDY    76  64  66 E14       30.10R
$$
...OTHER STATIONS IN TEXAS...

CITY           SKY/WX    TMP DP  RH WIND       PRES   REMARKS
ABILENE        MOSUNNY   86  66  51 E12       30.06R
AMARILLO       LGT RAIN  66  63  90 NW6       30.22S
AUSTIN         LGT RAIN  77  75  93 E8        29.96R
BROWNSVILLE    SUNNY     88  73  61 NE13      29.82F
CORPUS CHRISTI PTSUNNY   85  75  72 E14       29.86S
DALLAS FTW     CLOUDY    83  73  72 NW9       29.99R
DEL RIO        PTSUNNY   78  72  81 NW5       29.94S
EL PASO        PTSUNNY   85  56  37 E17       30.07S THUNDER
HOUSTON INT    CLOUDY    81  75  82 NE7       29.93F
LUBBOCK        TSTM      69  65  86 N16       30.16R
SAN ANGELO     SUNNY     87  62  43 E13       30.01F
SAN ANTONIO    CLOUDY    80  72  76 E17G28    29.95R
WACO           CLOUDY    77  73  87 CALM      29.99S THUNDER
WICHITA FALLS  NOT AVBL
$$
...OTHER LOCATIONS IN NEW MEXICO...

CITY           SKY/WX    TMP DP  RH WIND       PRES   REMARKS
ALAMAGORDO     CLOUDY    84  52  32 SW9       30.11S
ALBUQUERQUE    CLOUDY    76  46  34 E21       30.23R
CANNON AFB     CLOUDY    65  64  95 NE10      30.25S
CLOVIS         PTSUNNY   66  61  82 NE8       30.24F
HOLLOMAN AFB   CLOUDY    84  53  33 SW6       30.09S
ROSWELL        SUNNY     77  60  55 E16       30.17R
RUIDOSO          N/A     64  54  68 E14       30.36F
SANTA FE       CLOUDY    70  45  40 E12       30.33R
TRUTH OR CONSE MOSUNNY   84  45  25 SE6       30.13S
TUCUMCARI      CLOUDY    75  58  55 E13       30.22S
$$

USA.gov is the U.S. government's official web portal to all federal, state and local government web resources and services.